Kalispell, MT

11:19 AM MDT on July 22, 2017 (GMT -0600)
Glacier Park International

Weather History for KGPI - October, 2013

Change the Weather History Date:

Sunday, October 20, 2013

  Actual Average Record
Temperature  
Mean Temperature 42 °F 41 °F  
Max Temperature 57 °F 53 °F 72 °F (2014)
Min Temperature 27 °F 28 °F 16 °F (1982)
Degree Days  
Heating Degree Days 23 24  
Month to date heating degree days 491 418  
Since 1 July heating degree days 764 918  
Cooling Degree Days 0 0  
Month to date cooling degree days 0 0  
Year to date cooling degree days 264 147  
Moisture  
Dew Point 31 °F    
Average Humidity 72    
Maximum Humidity 100    
Minimum Humidity 43    
Precipitation  
Precipitation 0.00 in 0.03 in 0.88 in (1921)
Month to date precipitation 0.32 0.59  
Year to date precipitation 13.35 13.58  
Snow  
Snow 0.00 in - - ()
Month to date snowfall 0.0  
Year to date snowfall 10.1  
Since 1 July snowfall 0.0  
Snow Depth 0.00 in    
Sea Level Pressure  
Sea Level Pressure 30.16 in    
Wind  
Wind Speed 1 mph (WSW)    
Max Wind Speed 9 mph    
Max Gust Speed 15 mph    
Visibility 8 miles    
Events Fog    
T = Trace of Precipitation, MM = Missing Value Source: NWS Daily Summary

Daily Weather History Graph

Daily Weather History Graph

Search for Another Location

Airport or City:

Trip Planner

Search our weather history database for the weather conditions in past years. The results will help you decide how hot, cold, wet, or windy it might be!

Date:

Astronomy

Oct. 20, 2013 Rise Set
Actual Time 8:04 AM MDT 6:37 PM MDT
Civil Twilight 7:32 AM MDT 7:09 PM MDT
Nautical Twilight 6:56 AM MDT 7:45 PM MDT
Astronomical Twilight 6:20 AM MDT 8:22 PM MDT
Moon 7:39 PM MDT (10/20) 9:55 AM MDT (10/20)
Length of Visible Light 11h 36m
Length of Day
10h 33m
Full, 97% of the Moon is Illuminated
Oct 20
Full
Oct 26
Last Quarter
Nov 3
New
Nov 9
First Quarter
Nov 17
Full

Hourly Weather History & Observations

Time (MDT) Temp. Windchill Dew Point Humidity Pressure Visibility Wind Dir Wind Speed Gust Speed Precip Events Conditions
12:55 AM 30.0 °F 26.5 °F 28.0 °F 92% 30.15 in 5.0 mi WNW 3.5 mph - N/A   Clear
1:55 AM 28.9 °F - 27.0 °F 92% 30.16 in 9.0 mi Calm Calm - N/A   Clear
2:55 AM 28.0 °F - 27.0 °F 96% 30.17 in 6.0 mi Calm Calm - N/A   Clear
3:55 AM 28.9 °F - 28.0 °F 96% 30.17 in 10.0 mi Calm Calm - N/A   Clear
4:55 AM 30.0 °F - 28.9 °F 96% 30.16 in 9.0 mi Calm Calm - N/A   Clear
5:55 AM 28.0 °F - 26.1 °F 92% 30.17 in 9.0 mi Calm Calm - N/A   Clear
6:55 AM 28.9 °F 25.2 °F 27.0 °F 92% 30.18 in 10.0 mi North 3.5 mph - N/A   Clear
7:55 AM 27.0 °F - 26.1 °F 96% 30.19 in 10.0 mi Calm Calm - N/A   Clear
8:09 AM 26.6 °F 22.6 °F 24.8 °F 93% 30.13 in 10.0 mi SW 3.5 mph - N/A   Scattered Clouds
8:36 AM 28.4 °F - 26.6 °F 93% 30.13 in 2.0 mi Calm Calm - N/A   Overcast
8:39 AM 28.4 °F - 26.6 °F 93% 30.13 in 0.5 mi Calm Calm - N/A Fog Light Freezing Fog
8:47 AM 28.4 °F - 26.6 °F 93% 30.13 in 1.0 mi Calm Calm - N/A   Mist
8:51 AM 28.4 °F - 26.6 °F 93% 30.13 in 2.0 mi Calm Calm - N/A   Overcast
8:55 AM 30.0 °F - 28.0 °F 92% 30.20 in 2.0 mi Calm Calm - N/A   Mostly Cloudy
9:05 AM 30.2 °F - 28.4 °F 93% 30.13 in 4.0 mi Calm Calm - N/A   Scattered Clouds
9:21 AM 32.0 °F - 30.2 °F 93% 30.14 in 9.0 mi Calm Calm - N/A   Clear
9:55 AM 37.0 °F - 33.1 °F 86% 30.21 in 10.0 mi Calm Calm - N/A   Clear
10:55 AM 44.1 °F - 36.0 °F 73% 30.20 in 10.0 mi Calm Calm - N/A   Clear
11:55 AM 48.0 °F - 37.0 °F 66% 30.19 in 10.0 mi Calm Calm - N/A   Clear
12:55 PM 51.1 °F - 36.0 °F 56% 30.17 in 10.0 mi Calm Calm - N/A   Clear
1:55 PM 54.0 °F - 37.0 °F 53% 30.16 in 10.0 mi Calm Calm - N/A   Clear
2:55 PM 57.0 °F - 37.0 °F 47% 30.12 in 10.0 mi SSE 6.9 mph - N/A   Clear
3:55 PM 55.9 °F - 36.0 °F 47% 30.12 in 10.0 mi SE 6.9 mph - N/A   Clear
4:55 PM 57.0 °F - 36.0 °F 45% 30.12 in 10.0 mi SSW 6.9 mph - N/A   Clear
5:55 PM 53.1 °F - 36.0 °F 52% 30.14 in 10.0 mi Calm Calm - N/A   Clear
6:55 PM 46.9 °F - 36.0 °F 66% 30.16 in 10.0 mi Calm Calm - N/A   Clear
7:55 PM 39.0 °F 36.8 °F 34.0 °F 82% 30.19 in 10.0 mi WNW 3.5 mph - N/A   Clear
8:55 PM 37.0 °F - 34.0 °F 89% 30.19 in 10.0 mi Calm Calm - N/A   Clear
9:55 PM 33.1 °F - 30.9 °F 92% 30.20 in 10.0 mi Calm Calm - N/A   Clear
10:55 PM 30.9 °F 26.2 °F 28.9 °F 92% 30.20 in 10.0 mi West 4.6 mph - N/A   Clear
11:55 PM 32.0 °F - 30.0 °F 92% 30.20 in 9.0 mi Calm Calm - N/A   Clear